Simultaneous Nadir Overpasses (SNOs) Predictions

Prediction of SNOs between NOAA-20 and GCOM-C Satellite Orbit:

Table of predicted SNOs for the next 14.0 days since TLE Epoch: 10/17/2023
Index Date (NOAA-20) Time (NOAA-20) Lat,Lon (NOAA-20) SZA (NOAA-20 ) Date (GCOM-C) Time (GCOM-C) Lat,Lon (GCOM-C) SZA (GCOM-C ) Distance(km) Time Diff (sec)
1 10/19/2023 04:31:43 69.35, 109.50 79.12 10/19/2023 04:32:51 69.29, 111.49 79.09 78.46 68
2 10/19/2023 05:22:18 -68.90, -82.56 101.32 10/19/2023 05:23:30 -68.81, -81.80 101.40 32.43 72
3 10/19/2023 06:12:58 68.56, 85.20 78.36 10/19/2023 06:14:02 68.53, 85.23 78.34 3.00 64
4 10/19/2023 07:03:41 -68.54,-107.45 101.65 10/19/2023 07:04:32 -68.53,-107.39 101.65 2.55 51
5 10/19/2023 07:54:26 68.46, 59.95 78.29 10/19/2023 07:55:00 68.47, 59.92 78.30 1.90 34
6 10/19/2023 08:45:09 -68.44,-132.70 101.72 10/19/2023 08:45:30 -68.47,-132.70 101.69 3.46 21
7 10/19/2023 09:35:55 68.42, 34.63 78.28 10/19/2023 09:35:58 68.42, 34.61 78.27 1.14 3
8 10/19/2023 10:26:38 -68.40,-158.02 101.74 10/19/2023 10:26:28 -68.42,-158.01 101.72 1.62 10
9 10/19/2023 11:17:24 68.38, 9.31 78.26 10/19/2023 11:16:56 68.36, 9.30 78.24 2.52 28
10 10/19/2023 12:08:07 -68.36, 176.66 101.75 10/19/2023 12:07:26 -68.36, 176.67 101.76 0.75 41
11 10/19/2023 12:58:53 68.34, -16.01 78.25 10/19/2023 12:57:53 68.35, -15.94 78.26 3.07 60
12 10/19/2023 13:49:36 -68.32, 151.34 101.77 10/19/2023 13:48:24 -68.30, 151.36 101.79 2.41 72
13 10/19/2023 14:40:12 67.76, -40.65
